This is the latest recevied weather packets stored in our database for station/object N1TKS. If no packets are shown the sender has not sent any weather packets the latest 10 day(s).
| Time | Temp. | Humidity | Pressure | Rain* | Wind** | Luminosity | Snow |
|---|---|---|---|---|---|---|---|
| 1777527762 | 8.89° C | 89% | 1009.3 hPa | 2.54 mm | - | - | - |
| 1777527714 | 8.89° C | 89% | 1009.3 hPa | 2.54 mm | - | - | - |
| 1777527114 | 8.89° C | 89% | 1010.7 hPa | 1.78 mm | - | - | - |
| 1777526814 | 8.89° C | 89% | 1010.6 hPa | 1.78 mm | - | - | - |
| 1777526449 | 8.89° C | 89% | 1010.9 hPa | 1.78 mm | - | - | - |
| 1777526216 | 8.89° C | 89% | 1010.9 hPa | 1.78 mm | - | - | - |
| 1777524609 | 8.89° C | 89% | 1010.4 hPa | 0 mm | - | - | - |
| 1777524415 | 8.89° C | 89% | 1010.4 hPa | 0 mm | - | - | - |
| 1777524113 | 8.89° C | 89% | 1010.5 hPa | 0 mm | - | - | - |
| 1777523813 | 8.89° C | 89% | 1010.4 hPa | 0 mm | - | - | - |
| 1777523513 | 8.89° C | 89% | 1010.5 hPa | 0 mm | - | - | - |
| 1777523346 | 8.89° C | 89% | 1010.5 hPa | 0 mm | - | - | - |
| 1777523213 | 8.89° C | 89% | 1010.5 hPa | 0 mm | - | - | - |
| 1777522631 | 9.44° C | 88% | 1010.8 hPa | 2.29 mm | - | - | - |
| 1777522613 | 9.44° C | 89% | 1010.7 hPa | 0 mm | - | - | - |
| 1777522314 | 9.44° C | 89% | 1010.7 hPa | 0 mm | - | - | - |
| 1777521714 | 9.44° C | 88% | 1010.6 hPa | 0 mm | - | - | - |
| 1777521413 | 9.44° C | 88% | 1010.8 hPa | 2.29 mm | - | - | - |
| 1777520814 | 9.44° C | 88% | 1011.1 hPa | 2.29 mm | - | - | - |
| 1777520513 | 9.44° C | 88% | 1011.3 hPa | 2.03 mm | - | - | - |
| 1777520213 | 9.44° C | 88% | 1011.4 hPa | 2.03 mm | - | - | - |
| 1777519912 | 9.44° C | 88% | 1011.5 hPa | 1.78 mm | - | - | - |
| 1777519614 | 9.44° C | 88% | 1011.5 hPa | 1.78 mm | - | - | - |
| 1777519316 | 9.44° C | 87% | 1011.5 hPa | 1.78 mm | - | - | - |
| 1777519013 | 10° C | 88% | 1011.5 hPa | 1.78 mm | - | - | - |
* Rain latest hour (hover to see other rain measurements)
** Current wind speed in m/s (hover to see current wind gust speed)